Home   Weather   Fellbach   Past weeks

Flag for Germany Past Weather in Fellbach, Baden-Württemberg, Germany — Yesterday and Last 2 Weeks

Now
46 °F

Clear.


Feels Like: 46 °F
Forecast: 38 / 49 °F
Wind: 1 mph from North

Location: Stuttgart-Echterdingen

Current Time: May 1, 2017 at 12:52:41 am

Latest Report: May 1, 2017 at 12:20 am


Visibility: 10 mi

Pressure: 29.71 "Hg

Humidity: 66%

Dew Point: 36 °F

Location of FellbachLocation

Past Weather in Fellbach — Graph

°F

Fellbach Temperature Yesterday

Maximum temperature yesterday: 63 °F (at 2:50 pm)
Minimum temperature yesterday: 34 °F (at 5:50 am)
Average temperature yesterday: 50 °F

High & Low Weather Summary for the Past Weeks

 TemperatureHumidityPressure
High66 °F (Apr 24, 5:50 pm)100% (Apr 18, 9:20 pm)30.54 "Hg (Apr 18, 9:20 pm)
Low27 °F (Apr 20, 5:20 am)27% (Apr 21, 4:50 pm)29.71 "Hg (Apr 30, 6:50 pm)
Average43 °F71%30.09 "Hg
* Reported Apr 15 11:20 pm — Apr 30 11:20 pm, Fellbach, Weather by CustomWeather, © 2017

Note: Actual official high and low records may vary slightly from our data, if they occured in-between our weather recording intervals... More about our weather records

Advertising

Fellbach Weather History for the Previous 24 Hours

Scroll right to see more
 ConditionsComfort  
Time TempWeatherWind HumidityBarometerVisibility
11:20 pm
Sun, Apr 30
48 °FClear.5 mph62%29.71 "Hg10 mi
10:50 pm48 °FPassing clouds.3 mph66%29.71 "HgN/A
10:20 pm50 °FClear.5 mph62%29.74 "Hg10 mi
9:50 pm50 °FClear.5 mph58%29.74 "Hg10 mi
9:20 pm50 °FClear.6 mph62%29.74 "Hg10 mi
8:50 pm54 °FClear.7 mph51%29.71 "Hg10 mi
8:20 pm57 °FSunny.8 mph44%29.71 "Hg10 mi
7:50 pm59 °FPassing clouds.10 mph42%29.71 "HgN/A
7:20 pm61 °FPassing clouds.12 mph36%29.71 "HgN/A
6:50 pm61 °FPassing clouds.13 mph36%29.71 "HgN/A
6:20 pm61 °FPassing clouds.15 mph36%29.74 "HgN/A
5:50 pm63 °FPassing clouds.14 mph34%29.74 "HgN/A
5:20 pm63 °FPassing clouds.10 mph34%29.77 "HgN/A
4:50 pm63 °FPassing clouds.13 mph34%29.77 "HgN/A
4:20 pm63 °FPassing clouds.12 mph37%29.77 "HgN/A
3:50 pm63 °FPassing clouds.10 mph34%29.77 "HgN/A
3:20 pm63 °FPassing clouds.10 mph34%29.80 "HgN/A
2:50 pm63 °FPassing clouds.13 mph37%29.83 "HgN/A
2:20 pm61 °FSunny.14 mph39%29.83 "Hg10 mi
1:50 pm61 °FPassing clouds.13 mph42%29.83 "HgN/A
1:20 pm59 °FSunny.14 mph45%29.83 "Hg10 mi
12:50 pm59 °FSunny.14 mph42%29.86 "Hg10 mi
12:20 pm59 °FSunny.13 mph45%29.86 "Hg10 mi
11:50 am57 °FPassing clouds.14 mph41%29.89 "HgN/A
11:20 am57 °FSunny.15 mph44%29.89 "Hg10 mi
10:50 am55 °FPassing clouds.10 mph47%29.89 "HgN/A
10:20 am54 °FPassing clouds.13 mph51%29.92 "HgN/A
9:50 am52 °FPassing clouds.9 mph58%29.92 "HgN/A
9:20 am50 °FSunny.8 mph62%29.92 "Hg10 mi
8:50 am46 °FPassing clouds.6 mph71%29.95 "HgN/A
8:20 am45 °FSunny.1 mph71%29.95 "Hg10 mi
7:50 am41 °FSunny.3 mph81%29.95 "Hg10 mi
7:20 am39 °FSunny.1 mph81%29.95 "Hg10 mi
6:50 am37 °FSunny.1 mph81%29.95 "Hg10 mi
6:20 am34 °FSunny.1 mph87%29.95 "Hg10 mi
5:50 am34 °FClear.1 mph93%29.95 "Hg10 mi
5:20 am36 °FClear.1 mph87%29.95 "Hg10 mi
4:50 am36 °FClear.2 mph87%29.95 "Hg10 mi
4:20 am36 °FClear.1 mph87%29.95 "Hg10 mi
3:50 am37 °FClear.2 mph81%29.95 "Hg10 mi
3:20 am37 °FClear.1 mph81%29.95 "Hg10 mi
2:50 am39 °FClear.1 mph81%29.95 "Hg10 mi
2:20 am39 °FClear.2 mph81%29.95 "Hg10 mi
1:50 am39 °FPassing clouds.3 mph75%29.98 "HgN/A
1:20 am41 °FClear.1 mph81%29.98 "Hg10 mi
12:50 am43 °FClear.2 mph76%29.98 "Hg10 mi
12:20 am41 °FClear.5 mph76%29.98 "Hg10 mi
Weather by CustomWeather, © 2017

See weather overviewHow to use our weather pages